Somerville, NJ

9:20 PM EDT on March 22, 2017 (GMT -0400)
Somerset

Weather History for KSMQ - April, 2014

Change the Weather History Date:

Wednesday, April 23, 2014

  Actual Average Record
Temperature  
Mean Temperature 52 °F -  
Max Temperature 60 °F 65 °F 90 °F (1985)
Min Temperature 44 °F 40 °F 24 °F (1933)
Degree Days  
Heating Degree Days 14    
Growing Degree Days 2 (Base 50)    
Moisture  
Dew Point 34 °F    
Average Humidity 50    
Maximum Humidity 67    
Minimum Humidity 39    
Precipitation  
Precipitation 0.00 in - - ()
Sea Level Pressure  
Sea Level Pressure 29.66 in    
Wind  
Wind Speed 12 mph (NW)    
Max Wind Speed 28 mph    
Max Gust Speed 38 mph    
Visibility 10 miles    
Events      
Averages and records for this station are not official NWS values.
T = Trace of Precipitation, MM = Missing Value Source: NWS Daily Summary

Daily Weather History Graph

Daily Weather History Graph

Search for Another Location

Airport or City:

Trip Planner

Search our weather history database for the weather conditions in past years. The results will help you decide how hot, cold, wet, or windy it might be!

Date:

Astronomy

Apr. 23, 2014 Rise Set
Actual Time 6:08 AM EDT 7:46 PM EDT
Civil Twilight 5:39 AM EDT 8:15 PM EDT
Nautical Twilight 5:04 AM EDT 8:50 PM EDT
Astronomical Twilight 4:27 AM EDT 9:27 PM EDT
Moon 2:40 AM EDT 1:50 PM EDT
Length of Visible Light 14h 36m
Length of Day
13h 38m
Waning Crescent, 35% of the Moon is Illuminated
Apr 23
Waning Crescent
Apr 29
New
May 6
First Quarter
May 14
Full
May 21
Last Quarter

Hourly Weather History & Observations

Time (EDT) Temp. Windchill Dew Point Humidity Pressure Visibility Wind Dir Wind Speed Gust Speed Precip Events Conditions
12:53 AM 57.0 °F - 46.0 °F 67% 29.52 in 10.0 mi West 5.8 mph - N/A   Clear
1:53 AM 55.9 °F - 44.1 °F 64% 29.52 in 10.0 mi Variable 5.8 mph - N/A   Clear
2:53 AM 54.0 °F - 39.9 °F 59% 29.52 in 10.0 mi West 8.1 mph 16.1 mph N/A   Clear
3:53 AM 51.1 °F - 36.0 °F 56% 29.54 in 10.0 mi WNW 9.2 mph - N/A   Scattered Clouds
4:53 AM 51.1 °F - 35.1 °F 54% 29.56 in 10.0 mi NNW 17.3 mph 25.3 mph N/A   Overcast
5:53 AM 48.9 °F - 30.9 °F 50% 29.58 in 10.0 mi NW 9.2 mph - N/A   Overcast
6:53 AM 50.0 °F - 30.9 °F 48% 29.60 in 10.0 mi NW 10.4 mph 18.4 mph N/A   Overcast
7:53 AM 48.9 °F - 33.1 °F 54% 29.61 in 10.0 mi WNW 9.2 mph 24.2 mph N/A   Overcast
8:53 AM 50.0 °F - 34.0 °F 54% 29.62 in 10.0 mi WNW 15.0 mph 29.9 mph N/A   Overcast
9:53 AM 50.0 °F - 34.0 °F 54% 29.63 in 10.0 mi NW 15.0 mph 25.3 mph N/A   Overcast
10:53 AM 53.1 °F - 34.0 °F 48% 29.63 in 10.0 mi WNW 15.0 mph 26.5 mph N/A   Overcast
11:53 AM 53.1 °F - 34.0 °F 48% 29.63 in 10.0 mi NW 17.3 mph - N/A   Overcast
12:53 PM 55.4 °F - 35.6 °F 47% 29.63 in 10.0 mi NW 15.0 mph 24.2 mph N/A   Overcast
1:53 PM 55.9 °F - 34.0 °F 44% 29.63 in 10.0 mi NW 19.6 mph 32.2 mph N/A   Overcast
2:53 PM 57.9 °F - 33.1 °F 39% 29.64 in 10.0 mi NW 19.6 mph 28.8 mph N/A   Mostly Cloudy
3:53 PM 59.0 °F - 33.8 °F 39% 29.64 in 10.0 mi NW 27.6 mph 36.8 mph N/A   Scattered Clouds
4:53 PM 57.9 °F - 34.0 °F 41% 29.68 in 10.0 mi NW 21.9 mph 38.0 mph N/A   Partly Cloudy
5:53 PM 55.0 °F - 33.1 °F 43% 29.70 in 10.0 mi NW 18.4 mph 35.7 mph N/A   Clear
6:53 PM 52.0 °F - 32.0 °F 47% 29.74 in 10.0 mi NW 15.0 mph 25.3 mph N/A   Mostly Cloudy
7:53 PM 50.0 °F - 30.9 °F 48% 29.78 in 10.0 mi WNW 19.6 mph 31.1 mph N/A   Overcast
8:53 PM 46.9 °F - 28.9 °F 50% 29.83 in 10.0 mi NNW 21.9 mph 38.0 mph N/A   Overcast
9:53 PM 46.0 °F 39.3 °F 27.0 °F 47% 29.85 in 10.0 mi NW 16.1 mph 32.2 mph N/A   Overcast
10:53 PM 44.1 °F 38.1 °F 27.0 °F 51% 29.87 in 10.0 mi NW 11.5 mph 24.2 mph N/A   Clear
11:53 PM 44.1 °F 39.5 °F 27.0 °F 51% 29.87 in 10.0 mi NW 8.1 mph - N/A   Clear